Вернуться в каталог

FENGYUN 2E

АктивенПогодаGEO
NORAD 33463·PAYLOAD·🇨🇳 China

Запущен Dec 23, 2008 с Xichang Satellite Launch Center

Loading…

TLE

СвежийSource: Space-Track

Эпоха: Sep 14, 2026, 11:53 UTC

1 33463U 08066A   26257.49557660  .00000010  00000-0  00000-0 0  9994
2 33463   9.4676  53.3734 0000575 141.7932 234.4848  0.99117948 64890

Отслеживайте FENGYUN 2E в реальном времени с AllMySat

Download on the App Store